Regional Weather Roundup
Issued by NWS

Home | Current Version | Previous Version | Text Only | Print | Product List | Glossary On
Versions: 1 2 3 4 5 6 7 8 9 10 11 12 13 14 15 16 17 18 19 20 21 22 23 24 25 26 27 28 29 30 31 32 33 34 35 36 37 38 39 40 41 42 43 44 45 46 47 48 49 50
000
ASUS43 KOAX 032102
RWRNE

WEATHER ROUNDUP FOR NEBRASKA
NATIONAL WEATHER SERVICE OMAHA NE
400 PM CDT THU SEP 03 2015

NOTES: SATELLITE DATA IS BEING USED TO AUGMENT CLOUD COVER ABOVE
       12000 FEET.
       "FAIR" INDICATES FEW OR NO CLOUDS BELOW 12,000 FEET WITH NO
       SIGNIFICANT WEATHER AND/OR OBSTRUCTIONS TO VISIBILITY.

  * THESE STATIONS DO NOT REPORT WEATHER SUCH AS RAIN...SNOW OR FOG.

NEZ001>004-019>022-054>056-032200-
NEBRASKA PANHANDLE

CITY           SKY/WX    TMP DP  RH WIND       PRES   REMARKS
SCOTTSBLUFF    CLOUDY    87  47  24 SE15      29.87F
ALLIANCE       CLOUDY    92  45  19 SW9       29.84F
CHADRON        CLOUDY    96  45  17 S5        29.77F HX  92
KIMBALL        LGT RAIN  76  48  37 W13       29.95F
SIDNEY         CLOUDY    86  45  23 W21       29.90F
$$

NEZ057>060-069>072-079>082-032200-
SOUTHWEST NEBRASKA

CITY           SKY/WX    TMP DP  RH WIND       PRES   REMARKS
NORTH PLATTE   MOSUNNY   93  64  38 SE10      29.77F HX  94
IMPERIAL       PTSUNNY   96  49  20 CALM      29.80F HX  93
LEXINGTON      MOSUNNY   93  62  35 SE13      29.78F HX  94
MCCOOK         MOSUNNY  100  54  21 SE12G21   29.75F HX  98
$$

NEZ005>010-023>029-035>040-094-032200-
NORTH CENTRAL NEBRASKA

CITY           SKY/WX    TMP DP  RH WIND       PRES   REMARKS
VALENTINE      PTSUNNY   97  46  17 SE10      29.75F HX  93
AINSWORTH      PTSUNNY   93  61  33 E10       29.77F HX  93
BROKEN BOW     PTSUNNY   92  64  39 S13G25    29.79F HX  93
ORD            PTSUNNY   90  64  42 SE14G21   29.77S HX  91
$$

NEZ041-046>049-061>064-073>077-083>087-032200-
SOUTH CENTRAL NEBRASKA

CITY           SKY/WX    TMP DP  RH WIND       PRES   REMARKS
GRAND ISLAND   PTSUNNY   95  66  38 S17       29.79F HX  98
AURORA         MOSUNNY   92  65  40 S17G25    29.79F HX  94
HASTINGS       MOSUNNY   96  63  33 S16G26    29.79F HX  97
HEBRON         SUNNY     95  59  29 S14G25    29.80F HX  94
HOLDREGE       MOSUNNY   95  55  26 S16       29.78F HX  93
KEARNEY *      PTSUNNY   95  63  34 S16G22    29.78F HX  96
YORK           MOSUNNY   91  68  46 S13G18    29.80F HX  95
$$

NEZ011>018-030>034-042>045-032200-
NORTHEAST NEBRASKA

CITY           SKY/WX    TMP DP  RH WIND       PRES   REMARKS
NORFOLK        SUNNY     90  70  51 S16       29.78F HX  95
ALBION         MOSUNNY   88  68  51 SE13G18   29.79F HX  92
BLAIR          SUNNY     89  70  54 SE10G16   29.82F HX  94
COLUMBUS *     SUNNY     90  70  51 SE10      29.79S HX  95
FREMONT        SUNNY     91  68  47 SE13G21   29.81F HX  94
TEKAMAH        SUNNY     90  73  57 SE14      29.80F HX  98
$$

NEZ050>053-065>068-078-088>093-032200-
SOUTHEAST NEBRASKA

CITY           SKY/WX    TMP DP  RH WIND       PRES   REMARKS
LINCOLN        SUNNY     93  67  42 S20G25    29.80F HX  96
OMAHA EPPLEY   MOSUNNY   93  69  45 S16       29.81F HX  98
BEATRICE       SUNNY     94  66  39 S17G23    29.81F HX  96
FALLS CITY     SUNNY     93  69  45 S16       29.84F HX  98
NEBRASKA CITY  SUNNY     92  62  36 S15G22    29.83F HX  92
PLATTSMOUTH    SUNNY     91  69  49 SE8G16    29.83F HX  95
$$

NEZ044-045-051>053-067-032200-
OMAHA AREA

CITY           SKY/WX    TMP DP  RH WIND       PRES   REMARKS
OMAHA EPPLEY   MOSUNNY   93  69  45 S16       29.81F HX  98
BLAIR          SUNNY     89  70  54 SE10G16   29.82F HX  94
FREMONT        SUNNY     91  68  47 SE13G21   29.81F HX  94
OFFUTT AFB     SUNNY     92  69  47 SE15      29.80F HX  97
PLATTSMOUTH    SUNNY     91  69  49 SE8G16    29.83F HX  95
WAHOO          FAIR      91  71  52 SE12      29.80F HX  98
$$




USA.gov is the U.S. government's official web portal to all federal, state and local government web resources and services.